GFSGBSN_sfc_wetblb_000.txt.gz
Wetbulb
57.07 57.03 56.80 56.38 56.13 56.33 56.53 55.95 55.64 55.71 55.58 55.62 55.72 55.86 55.97 55.74 56.03 56.39 55.96 55.68 55.90 55.78 55.20 55.02 55.95 56.32 54.12 49.68 49.53 55.78 61.56 59.86 55.50 54.79 52.09 50.06 48.92 47.02 44.51 44.91 45.45 42.83 43.50 45.26 46.45 45.92 44.06
57.18 57.15 57.19 56.73 56.32 56.48 56.48 55.91 55.55 55.50 55.42 55.44 55.38 55.62 55.72 55.81 56.15 56.39 56.22 55.78 55.52 55.44 55.01 54.77 55.80 55.46 52.01 45.28 54.29 55.47 55.80 55.62 54.23 52.29 51.15 50.71 48.53 49.24 47.24 45.98 44.39 46.71 45.80 45.62 46.25 45.75 45.54
56.64 57.09 56.94 56.58 56.56 56.62 56.60 56.07 55.52 55.46 55.20 55.28 55.36 55.14 55.34 55.54 55.87 55.94 56.00 55.82 55.42 54.97 54.95 54.69 55.30 56.28 54.31 48.52 52.71 53.30 54.78 53.33 54.01 53.19 50.65 51.09 50.63 49.10 47.66 46.33 48.86 47.31 43.20 44.77 45.53 44.50 43.85
56.85 56.81 57.01 56.70 56.58 56.39 56.53 56.11 55.46 55.18 55.16 55.18 55.40 55.01 54.75 54.75 54.77 54.83 55.20 54.97 54.85 54.99 54.73 54.28 54.77 54.55 47.70 55.21 53.80 55.19 54.26 53.95 55.58 55.37 53.35 52.41 51.99 49.28 47.50 48.20 47.84 43.62 41.80 37.71 43.66 45.32 44.39
56.48 56.43 56.58 56.74 56.51 56.61 56.47 56.06 55.26 54.91 54.89 54.91 54.95 54.79 54.36 54.20 54.16 54.43 54.48 54.45 54.63 54.93 55.14 54.63 53.29 52.39 48.54 57.05 53.63 54.50 53.90 53.31 54.06 54.74 54.06 54.97 52.01 47.24 46.68 40.68 37.87 38.93 34.33 36.98 41.31 44.26 42.42
56.23 56.07 56.36 57.02 57.00 56.91 56.97 56.13 55.18 54.63 54.63 54.69 54.75 54.73 54.34 54.35 54.16 53.61 53.75 54.39 55.24 54.44 54.10 55.49 56.26 48.35 51.97 49.89 52.73 53.75 52.31 52.45 50.90 51.69 51.35 50.04 46.01 41.89 40.42 37.57 31.62 34.72 35.24 34.54 35.41 41.05 42.04
55.18 55.54 56.46 57.06 57.22 57.20 57.46 56.81 55.44 54.55 54.41 54.67 54.77 54.45 54.32 54.16 54.33 53.77 54.70 54.20 51.57 47.98 50.78 46.00 47.08 48.40 48.92 51.89 53.39 50.98 51.89 51.18 50.34 49.09 43.61 45.19 40.74 36.30 38.65 40.64 42.02 39.64 37.28 36.22 38.51 42.74 42.29
54.36 54.57 56.35 56.97 57.24 57.18 57.35 56.74 55.52 54.75 54.45 54.47 54.43 54.40 54.06 53.91 53.82 53.94 55.89 52.40 52.78 52.95 45.92 50.39 49.76 49.71 51.66 50.92 48.38 49.89 50.61 47.10 46.73 41.77 43.25 42.03 38.11 42.43 44.35 44.05 41.62 40.27 38.00 36.86 40.30 43.74 41.68
53.33 53.88 55.67 56.44 56.66 56.61 56.56 56.41 55.40 55.00 54.29 53.94 53.90 54.18 54.10 53.36 53.19 55.02 53.53 53.64 59.22 57.44 47.85 47.43 50.24 49.22 49.83 50.50 47.35 47.64 47.85 46.54 44.62 42.74 40.96 39.25 42.01 45.48 43.37 41.60 40.24 38.27 37.73 37.41 38.37 41.12 40.93
52.73 53.33 54.88 55.65 55.84 55.74 55.64 55.60 55.42 55.08 54.45 53.92 53.45 53.67 53.45 53.52 52.69 54.40 52.78 55.82 57.74 57.31 40.28 43.57 47.40 49.75 50.62 49.99 47.28 50.45 49.78 47.41 45.55 41.72 41.82 41.73 44.21 42.44 41.93 40.80 40.12 36.02 41.58 41.52 40.07 37.66 32.85
52.65 53.37 54.30 54.87 55.18 54.65 54.49 54.57 54.63 54.43 54.21 53.78 53.31 53.45 53.47 54.77 54.80 52.90 55.00 57.29 57.96 55.09 28.16 45.92 46.69 52.54 50.56 46.85 46.64 47.99 50.55 48.20 42.21 42.39 41.46 40.39 39.91 39.95 40.23 40.16 42.23 39.55 42.97 41.62 40.62 36.58 35.11
52.73 53.76 54.24 54.59 54.77 54.51 54.21 53.99 53.97 53.90 53.75 53.40 53.03 53.19 53.41 56.30 53.88 53.69 57.60 57.83 55.75 40.62 30.67 43.67 47.49 46.44 46.43 47.19 46.77 48.26 49.15 50.30 48.44 45.14 44.06 41.77 43.41 42.21 40.91 43.94 43.93 44.76 42.37 40.74 39.74 36.60 29.05
52.86 53.59 54.14 54.32 54.51 54.29 54.07 53.80 53.46 53.34 53.22 53.16 52.58 52.75 55.88 58.68 53.03 56.73 58.12 53.57 40.89 31.21 46.52 42.31 43.73 45.77 44.64 43.24 45.37 45.58 44.32 42.51 39.22 35.45 36.07 42.37 41.59 43.15 45.14 41.24 43.63 41.21 36.52 27.70 26.33 25.60 26.29
53.93 53.79 53.85 54.16 54.45 54.13 53.77 53.66 53.34 53.11 52.97 52.92 52.22 52.25 57.04 58.77 57.82 57.34 54.32 45.05 33.41 42.09 42.05 45.74 44.76 44.33 42.04 42.88 43.20 44.05 42.67 39.39 42.86 41.03 36.72 35.93 33.27 42.48 45.19 41.64 38.53 38.96 37.83 27.65 23.74 22.09 26.93
54.51 54.04 53.85 53.94 54.19 53.94 53.58 53.44 53.25 53.15 52.71 52.43 52.59 56.25 54.74 56.05 58.19 57.98 49.26 35.01 33.58 40.98 43.86 43.33 44.31 40.64 40.93 43.76 41.58 42.54 40.21 40.09 41.73 42.26 36.64 34.68 36.52 44.36 44.88 44.87 42.98 40.04 34.43 39.75 31.40 23.97 24.15
54.31 54.10 53.71 53.93 53.89 53.50 53.32 53.30 53.29 53.15 53.02 52.26 53.10 54.74 51.62 56.50 56.88 53.87 41.37 37.74 41.10 44.66 45.55 45.76 39.85 41.93 38.10 40.74 40.83 40.59 39.76 42.94 42.57 44.35 43.37 40.84 35.02 42.48 44.73 45.41 44.19 41.09 42.49 32.91 30.40 20.72 25.13
53.38 53.55 53.77 53.88 53.59 53.22 53.13 53.31 53.01 52.81 52.71 51.99 56.92 48.82 52.04 56.54 55.82 47.57 35.28 35.56 42.79 45.78 46.93 44.47 42.47 41.40 41.99 40.38 41.41 39.99 40.35 43.12 44.48 43.90 44.93 41.38 38.94 37.02 41.06 40.54 38.20 37.21 35.52 37.58 38.14 31.92 26.87
52.69 52.74 53.08 53.45 53.65 53.34 53.13 53.10 52.85 52.36 52.25 52.18 52.71 42.03 51.25 54.56 44.97 42.83 38.59 43.54 44.43 45.92 48.07 46.44 45.51 43.90 42.21 42.26 40.62 41.04 40.83 42.70 45.21 44.39 40.78 42.13 35.80 29.84 36.39 42.24 43.87 40.86 38.66 37.83 27.56 30.24 29.20
52.43 52.31 52.69 53.42 53.53 53.16 52.93 52.76 52.64 52.18 51.87 49.63 48.16 47.63 54.13 53.29 34.59 33.66 43.18 45.13 46.08 45.79 45.23 45.51 43.92 44.72 45.03 41.70 36.29 41.73 42.57 45.97 45.53 44.35 40.76 40.83 32.78 27.09 31.95 36.78 40.62 38.66 40.30 39.15 36.39 30.12 28.43
52.13 52.15 52.85 53.21 53.27 53.17 52.95 52.72 52.57 52.26 52.07 51.71 46.42 39.24 46.06 47.91 46.36 42.58 41.41 42.71 42.57 46.69 45.63 46.60 45.03 45.82 43.14 41.38 42.58 38.77 41.51 45.59 45.89 45.09 45.57 43.43 37.18 32.11 27.59 31.97 37.02 35.47 38.45 39.29 34.93 23.35 30.19
52.05 51.99 52.63 52.70 52.87 52.85 52.83 52.66 52.11 52.04 51.98 52.56 46.72 41.27 45.23 36.72 40.74 42.12 43.76 44.65 42.90 42.30 45.95 45.87 44.01 43.77 41.68 35.28 36.92 37.63 41.87 42.80 44.78 45.11 43.47 40.79 32.77 35.35 36.83 38.44 38.62 38.71 38.02 38.14 35.60 34.72 28.97
51.93 51.64 51.89 52.46 52.42 52.57 52.35 50.12 50.25 51.66 51.76 49.46 44.91 44.54 45.85 43.21 45.42 42.54 39.73 42.02 42.73 43.38 44.20 42.77 41.93 43.69 43.57 38.84 39.11 36.42 40.62 39.99 39.89 42.34 39.94 41.43 31.13 32.71 34.18 38.35 37.92 35.61 37.62 36.98 36.23 36.29 34.75
51.87 51.72 51.67 52.53 52.36 52.69 50.88 50.07 51.74 51.45 52.87 49.48 49.66 48.32 45.74 39.93 39.70 35.98 37.03 42.66 43.52 45.10 44.77 46.01 44.31 41.72 36.27 42.48 44.44 44.55 44.89 44.16 43.55 40.92 36.43 36.48 30.47 28.02 30.62 33.81 32.94 30.27 33.18 34.32 35.52 36.94 35.09
51.69 51.82 52.08 52.37 52.38 52.33 50.14 49.73 50.90 50.86 51.38 52.28 50.64 47.10 38.79 33.81 32.89 38.11 44.61 44.75 43.88 43.93 42.50 45.44 44.43 38.77 45.28 48.34 45.68 43.12 40.24 40.04 40.71 41.05 42.58 31.71 29.23 29.18 27.79 31.05 25.57 35.64 39.50 39.28 36.17 37.20 38.14
51.37 51.51 51.84 52.32 52.50 52.03 49.18 50.45 51.16 50.74 51.38 51.85 51.96 48.82 39.85 33.16 37.29 41.06 42.72 42.99 43.50 43.50 42.57 43.93 46.02 47.16 47.46 41.45 33.33 29.36 29.32 30.15 31.69 40.96 40.30 39.80 33.62 29.24 26.72 28.65 31.89 35.00 37.80 34.56 32.26 34.46 39.81
51.05 51.30 51.51 51.58 51.53 51.50 51.22 51.65 51.35 50.66 51.16 52.51 53.30 51.07 43.64 35.84 36.94 46.28 42.38 43.12 36.06 34.70 37.64 42.22 47.69 47.87 43.73 34.90 28.75 21.48 21.10 27.81 30.38 34.59 40.66 37.03 32.09 26.93 29.11 25.64 24.56 31.13 37.30 42.10 40.66 29.99 40.82
50.69 50.75 51.03 50.87 50.70 50.79 50.99 51.23 51.26 50.85 51.16 51.99 52.03 54.14 48.20 38.40 45.45 45.93 40.50 39.63 43.79 38.47 37.82 37.48 42.35 38.66 41.75 34.37 30.23 29.64 26.11 34.07 27.56 23.92 24.28 26.50 30.02 24.79 19.54 22.73 26.47 35.67 39.70 41.96 25.12 29.78 37.99
50.19 50.43 50.25 50.37 50.28 50.35 50.81 50.76 50.70 50.40 50.97 52.13 52.50 54.79 50.59 42.28 45.69 48.66 49.25 45.15 44.59 40.70 34.50 40.22 39.35 36.96 35.26 32.53 31.22 29.29 32.17 29.55 28.68 32.72 29.67 28.24 24.50 27.82 26.35 27.06 25.91 40.18 40.52 33.52 36.95 38.25 41.05
49.82 50.03 49.82 49.76 49.85 49.99 50.13 50.46 50.47 50.24 50.59 51.67 49.41 54.50 53.94 47.06 45.99 51.25 51.98 52.64 50.86 48.12 44.45 41.46 40.31 39.55 37.54 33.75 33.12 28.64 31.84 32.55 27.54 29.85 36.21 31.87 33.26 29.58 30.23 30.00 37.38 40.42 41.64 41.71 43.29 42.05 40.47

GFSGBSN_sfc_wetblb_003.txt.gz
Wetbulb
56.85 56.19 56.24 56.06 56.25 56.55 56.65 56.22 55.59 55.43 55.34 55.64 55.70 55.71 55.85 55.10 54.82 55.27 55.68 55.52 55.52 55.82 55.84 55.60 56.05 57.04 52.28 47.38 48.18 54.48 60.60 58.58 53.53 53.00 49.84 48.74 47.34 45.05 43.28 43.78 43.89 41.50 42.28 43.47 44.17 43.87 41.98
56.41 56.22 56.33 56.48 56.76 56.85 56.64 55.79 55.15 55.20 55.22 55.26 55.30 55.60 55.93 55.89 55.91 55.93 56.09 55.58 55.43 55.34 55.42 55.34 56.19 56.39 50.22 43.85 52.90 53.49 53.65 54.10 52.68 51.44 50.30 49.60 47.50 47.20 45.36 44.26 42.71 44.91 43.95 44.12 44.39 44.15 43.71
56.10 56.41 56.84 56.80 56.96 56.82 56.68 55.81 55.18 55.26 54.94 55.00 55.16 55.12 55.24 55.77 55.91 55.80 55.84 55.52 55.31 55.14 55.10 55.06 55.83 55.81 51.30 47.55 51.15 52.66 54.10 51.62 51.87 52.11 50.39 50.01 49.20 47.80 46.01 44.37 47.05 45.53 41.99 43.40 43.24 43.06 43.15
55.92 56.27 56.58 56.74 56.70 56.63 56.55 55.84 55.16 55.12 55.00 55.10 55.24 54.75 54.61 54.63 54.88 55.04 55.14 54.94 54.98 55.06 54.80 54.33 55.14 54.79 46.47 53.72 52.66 53.72 53.56 53.24 54.20 53.36 52.24 51.66 51.19 47.98 45.65 46.20 45.04 41.33 39.94 36.41 42.25 42.16 42.35
56.03 56.07 56.62 56.96 56.71 56.59 56.47 55.74 54.90 54.88 54.79 54.81 54.78 54.59 54.33 54.06 54.20 54.24 54.23 54.33 54.44 54.71 54.27 54.20 53.84 50.39 46.68 56.38 52.20 53.02 51.62 50.31 51.21 52.41 52.46 54.12 50.45 45.12 44.51 38.23 36.54 37.09 32.13 34.91 38.97 43.08 42.09
55.38 55.73 56.71 57.18 56.95 56.91 56.97 56.13 55.00 54.61 54.57 54.71 54.63 54.41 54.16 54.10 54.16 53.77 53.86 54.17 54.84 53.86 53.86 54.41 54.78 46.64 50.72 48.69 51.55 51.86 51.33 51.03 49.33 50.05 49.76 48.44 43.79 39.85 38.64 36.76 30.42 32.57 32.94 32.73 34.41 39.62 41.75
54.59 55.14 56.65 57.18 57.10 57.30 57.44 56.57 55.44 54.43 54.33 54.69 54.63 54.43 54.29 53.86 53.79 53.55 52.64 51.68 50.36 47.59 50.52 44.31 45.37 46.83 47.50 50.66 51.82 50.15 50.30 49.83 49.45 47.00 41.96 43.66 39.48 35.34 36.64 38.60 39.81 37.95 35.75 34.58 36.88 41.01 41.30
53.75 54.36 56.15 56.82 56.89 56.81 56.96 56.51 55.42 54.74 54.37 54.24 54.14 54.33 54.14 53.92 53.54 53.89 54.16 51.92 50.81 51.32 44.28 49.53 48.00 48.05 49.86 49.37 46.83 48.81 49.96 46.36 45.62 40.54 41.45 41.11 36.84 40.60 42.49 42.26 39.96 38.63 36.19 35.12 38.82 41.95 39.76
53.03 53.59 55.37 56.36 56.37 56.37 56.27 56.01 55.22 54.60 54.19 53.94 53.76 54.16 54.18 53.65 53.27 54.25 53.45 53.87 58.06 54.95 43.55 46.30 48.54 47.58 48.50 49.32 45.70 46.59 47.25 45.32 43.38 40.70 39.99 37.89 40.36 43.43 42.05 39.59 38.45 36.54 35.83 35.25 36.88 39.47 38.68
52.61 52.89 54.39 55.63 55.93 55.66 55.24 55.34 55.08 54.70 54.21 53.70 53.47 53.61 53.17 54.38 54.55 52.66 51.51 54.30 56.02 53.73 37.40 42.24 46.17 48.41 49.14 48.24 45.70 48.90 48.71 46.31 44.35 39.64 40.20 40.09 42.09 41.40 39.78 38.78 38.38 34.26 39.32 38.90 38.49 36.30 32.06
52.32 52.89 53.92 54.85 55.14 54.45 54.19 54.15 54.39 54.35 54.09 53.68 53.09 53.27 53.21 56.00 53.27 51.33 54.37 56.28 57.05 52.42 25.58 44.14 45.13 51.26 48.72 45.24 44.92 47.80 50.24 46.69 41.35 41.70 40.44 38.82 38.43 39.19 38.99 39.54 40.44 38.77 41.73 39.02 38.47 35.24 33.94
52.28 53.10 53.98 54.49 54.59 54.05 54.03 53.79 53.65 53.72 53.52 53.42 53.11 53.07 53.57 56.31 52.28 52.39 56.30 54.79 54.16 38.36 28.64 41.84 45.86 44.79 44.59 45.67 45.41 47.87 47.75 48.87 46.85 43.12 43.07 40.84 42.16 41.18 40.05 42.24 42.70 43.65 40.15 38.77 37.46 34.87 28.21
52.49 53.23 53.73 54.10 54.53 53.95 53.95 53.79 53.38 53.36 53.22 53.04 52.69 52.78 55.64 57.52 50.71 55.49 56.09 51.51 39.08 29.26 44.56 40.53 41.88 43.93 42.66 41.51 43.60 44.26 42.72 41.24 38.02 33.80 34.54 40.91 41.11 43.25 43.84 40.34 42.73 40.63 35.11 26.13 25.12 24.67 25.49
53.67 53.59 53.51 53.92 54.35 53.77 53.65 53.60 53.30 53.07 52.83 52.88 52.23 53.30 56.45 57.20 56.47 55.96 51.89 43.35 31.71 39.85 39.79 44.35 43.00 42.90 40.18 41.73 41.73 42.60 40.83 37.95 41.51 39.38 35.28 34.19 31.46 41.04 44.45 40.04 37.46 37.57 35.91 26.40 21.85 21.17 25.83
54.39 54.08 53.53 53.88 54.19 53.71 53.40 53.36 53.17 52.90 52.57 52.38 53.44 56.21 52.40 53.93 56.68 55.83 46.21 32.67 32.46 38.37 41.81 41.75 42.51 39.40 39.53 42.44 40.75 40.72 38.94 38.52 39.95 40.79 35.27 33.51 35.09 42.78 43.40 43.36 41.26 38.47 33.36 37.95 29.25 22.64 23.22
53.88 54.14 53.63 53.90 53.70 53.28 53.03 53.09 52.91 53.00 52.73 52.69 54.31 51.39 49.71 55.12 56.00 49.23 39.61 36.51 39.13 42.90 43.87 43.72 38.03 40.11 36.28 39.72 39.49 38.90 38.50 41.41 40.90 43.28 41.85 39.38 34.05 40.52 42.90 43.39 42.84 40.36 40.68 31.95 30.18 19.83 22.76
52.88 53.61 53.90 53.94 53.52 52.85 52.89 53.00 52.79 52.70 52.50 52.20 55.68 45.05 50.09 55.61 52.82 44.30 33.48 34.03 41.10 44.96 45.37 43.19 40.82 40.07 40.32 38.63 39.50 38.20 38.89 41.63 42.84 42.48 43.15 39.52 37.44 35.69 39.21 38.42 36.25 36.86 34.71 35.47 35.74 30.46 24.83
52.21 52.82 53.19 53.62 53.60 52.91 52.82 52.92 52.75 52.43 52.08 53.88 48.98 41.28 50.23 52.10 44.44 39.66 37.05 41.68 43.82 44.76 46.91 45.13 43.99 42.51 40.72 40.30 39.28 39.22 39.21 41.39 43.68 43.14 38.97 40.31 34.66 28.93 34.25 40.51 42.07 39.93 37.00 35.81 29.88 27.45 27.58
52.09 52.28 52.84 53.55 53.33 52.77 52.58 52.60 52.32 52.13 52.13 50.75 47.23 46.05 51.56 49.83 35.37 31.49 41.40 43.64 44.56 44.02 43.77 43.47 42.19 43.42 43.61 39.66 35.53 40.10 41.05 44.57 44.70 42.88 39.48 39.66 32.17 26.21 30.86 35.40 37.83 36.73 37.88 37.34 33.43 29.24 27.99
51.72 52.13 52.29 52.83 53.12 52.79 52.56 52.38 52.03 52.11 52.09 51.79 44.44 38.03 44.86 45.24 42.98 40.94 40.00 40.65 41.16 44.95 44.27 44.74 43.26 44.10 41.64 39.92 41.00 37.54 40.27 43.99 44.80 43.83 44.62 42.80 35.50 31.01 27.07 30.70 35.33 34.07 36.56 37.14 34.31 22.94 28.15
51.67 51.61 51.73 52.30 53.11 52.68 52.11 50.01 50.38 51.84 51.68 51.45 44.31 39.71 44.09 35.66 39.35 41.24 42.04 42.70 41.02 40.41 44.01 44.39 42.52 42.11 39.84 34.32 35.75 36.16 40.31 41.42 43.04 44.14 42.25 39.50 32.27 33.91 34.95 36.61 36.84 37.04 36.55 37.46 34.72 33.93 30.78
51.60 51.60 51.44 51.58 52.94 52.51 49.49 49.24 51.25 51.48 51.92 48.01 44.65 43.40 43.50 42.33 43.64 40.11 38.37 39.84 41.41 41.71 42.53 41.01 40.90 41.77 41.76 37.80 38.23 35.59 39.46 38.84 38.65 40.79 38.70 39.46 30.11 32.10 31.51 36.57 36.71 34.78 36.66 35.95 36.12 35.52 34.10
51.69 51.43 50.94 51.70 52.50 52.26 49.27 49.11 50.97 51.16 51.83 47.58 47.34 46.04 43.87 37.78 36.83 35.01 35.44 40.63 41.89 43.41 43.54 44.32 43.29 40.00 34.54 41.57 43.60 43.42 43.57 43.03 41.91 39.39 35.80 35.73 29.97 28.57 24.79 32.62 30.68 27.08 31.19 33.75 34.28 34.93 34.12
51.47 51.76 51.81 52.20 52.35 51.73 49.13 48.99 50.17 50.75 51.37 50.51 48.43 44.07 38.63 33.03 30.85 36.85 42.34 42.76 42.11 42.08 41.60 43.35 42.73 37.80 42.76 46.27 43.70 41.43 38.91 38.02 38.11 39.22 41.09 31.69 29.42 28.30 23.45 30.89 21.97 34.17 37.54 37.57 35.15 36.15 36.57
51.10 51.45 52.00 52.18 52.35 51.86 48.22 49.54 50.86 50.61 51.50 51.82 49.81 45.66 39.39 32.55 36.66 38.93 42.01 41.77 41.72 42.32 40.94 42.47 44.44 44.84 44.89 39.91 32.58 28.39 28.72 29.29 29.75 39.89 37.76 36.43 33.09 29.91 29.56 28.06 29.40 34.82 36.62 33.64 32.28 32.75 37.77
50.92 51.11 51.50 51.49 51.61 51.39 51.15 51.59 50.88 50.54 51.03 52.48 50.98 46.52 42.58 35.59 36.65 44.11 41.26 41.54 34.60 33.66 35.31 40.38 46.04 45.53 42.04 31.50 28.70 22.09 21.22 27.21 29.95 32.82 38.18 35.23 29.70 27.03 28.41 26.00 24.49 31.40 35.64 38.61 38.65 30.01 39.05
50.71 50.93 51.18 50.86 50.59 51.09 51.22 51.48 51.06 50.54 50.97 51.64 51.64 49.96 46.10 36.43 42.58 44.47 38.72 38.52 41.26 36.70 36.44 35.47 40.07 37.88 40.01 33.63 29.88 22.89 25.33 32.72 26.96 22.90 24.19 26.38 29.51 27.05 27.71 26.31 27.15 34.52 37.73 39.19 28.79 30.85 38.17
50.29 50.41 50.36 50.28 50.13 50.31 51.05 51.08 50.99 50.56 50.74 51.65 50.75 52.17 48.51 40.03 43.53 46.57 47.16 43.63 42.48 39.50 34.28 39.22 38.21 35.64 35.35 31.81 27.70 28.51 20.82 28.76 28.18 31.18 28.59 28.41 27.12 24.31 26.75 25.57 23.43 38.47 39.76 33.95 37.96 39.13 39.50
49.97 50.03 49.92 49.80 49.76 49.72 50.21 50.63 50.64 50.57 50.70 51.34 49.35 52.45 51.45 46.32 45.12 50.02 51.02 50.18 48.57 46.67 42.51 39.68 39.41 37.80 37.00 34.49 33.14 28.74 28.66 31.64 26.66 30.06 34.28 31.09 33.17 28.35 32.16 30.55 37.08 38.84 41.35 42.11 42.53 40.04 38.22

GFSGBSN_sfc_wetblb_006.txt.gz
Wetbulb
56.47 56.13 56.29 56.81 56.96 56.95 57.08 56.75 55.83 55.54 55.36 55.60 55.78 55.74 55.11 54.97 54.56 54.30 54.36 54.48 55.58 55.98 56.06 56.14 56.53 56.55 52.08 46.13 46.85 52.81 60.06 58.24 53.23 52.17 49.01 47.62 46.51 44.08 42.11 42.66 43.11 40.92 40.70 42.33 42.73 42.67 41.10
55.98 55.87 56.44 56.72 56.84 56.99 56.98 56.38 55.52 55.31 55.13 55.17 55.19 55.43 55.62 55.40 54.99 54.63 54.42 55.21 55.32 55.62 55.68 55.84 56.14 56.53 48.39 43.34 51.30 52.39 52.68 52.81 51.42 50.19 48.86 48.49 46.13 45.52 44.61 42.97 41.69 43.28 42.37 41.82 42.63 42.80 42.37
55.67 55.96 56.87 57.03 56.89 56.77 56.77 55.88 55.21 55.21 55.01 54.95 55.05 55.09 55.29 55.70 55.84 55.90 55.84 55.54 55.30 55.24 55.54 55.80 56.13 54.88 47.84 46.67 50.11 51.86 53.34 50.04 50.42 50.42 49.20 48.56 47.84 46.36 44.82 43.02 45.72 43.66 41.23 41.71 42.59 41.83 41.10
55.63 55.78 56.69 56.93 56.67 56.54 56.52 55.62 54.97 55.03 54.97 54.87 54.97 54.75 54.60 54.87 55.17 55.17 55.15 54.83 54.83 55.27 55.48 55.60 55.74 52.76 45.36 52.87 51.86 52.77 51.61 50.37 51.17 51.44 50.87 50.36 49.96 47.02 44.56 44.43 42.68 39.53 38.36 35.31 41.10 40.96 40.98
55.72 55.82 56.85 57.11 56.69 56.54 56.60 55.94 54.95 54.79 54.65 54.64 54.71 54.30 54.18 54.03 53.93 54.05 54.12 54.24 54.55 54.95 55.27 55.01 52.34 50.14 44.65 55.78 51.37 51.71 49.92 48.51 49.76 50.89 51.39 52.47 48.76 43.09 42.66 37.37 35.56 35.77 31.59 33.17 37.54 41.55 41.64
55.11 55.74 56.90 57.09 56.89 56.86 56.92 56.20 55.15 54.56 54.58 54.60 54.59 54.47 54.05 54.03 53.93 53.57 53.41 54.20 54.60 53.45 53.41 53.17 53.04 45.56 49.20 47.13 50.09 50.42 49.58 49.91 48.25 48.77 48.17 46.41 42.16 38.70 37.86 36.06 29.38 31.90 31.31 30.78 32.09 38.87 40.77
54.25 54.76 56.72 57.09 57.00 57.09 57.19 56.36 55.23 54.49 54.56 54.58 54.53 54.33 54.00 53.75 53.87 53.29 51.89 50.45 47.86 46.49 49.29 43.37 43.96 45.10 45.97 49.57 49.96 48.98 48.38 48.51 47.76 45.13 39.92 42.36 38.58 34.30 35.74 36.98 37.86 36.17 33.82 32.86 36.04 38.86 39.57
53.93 54.25 55.79 56.59 56.73 56.79 56.69 55.94 55.17 54.49 54.46 54.46 54.30 54.20 54.22 53.81 53.83 53.65 51.63 51.17 49.00 50.72 42.11 47.37 46.56 46.58 48.35 47.99 46.09 48.23 48.96 45.70 44.22 39.04 39.74 39.83 35.59 38.86 41.21 40.13 38.19 36.92 34.33 33.11 37.30 39.66 38.15
53.13 52.99 55.06 56.01 56.41 56.37 55.98 55.72 54.99 54.53 54.22 53.87 53.73 54.13 54.01 53.66 53.37 53.00 52.93 52.60 57.24 52.94 41.81 45.32 47.09 46.33 47.12 48.47 44.51 46.01 46.91 44.52 41.90 39.53 39.13 36.97 38.13 42.06 40.53 38.36 37.83 35.69 33.90 33.45 35.42 38.06 37.35
52.90 52.19 54.24 55.28 55.92 55.70 54.97 54.79 54.83 54.59 54.16 53.69 53.38 53.46 53.22 53.60 53.60 51.41 50.10 53.38 55.88 50.08 36.44 40.95 44.89 46.73 47.91 46.72 43.65 47.24 48.42 44.99 43.13 38.24 38.92 38.92 40.58 40.16 39.55 38.04 37.12 33.55 37.77 37.37 36.39 34.67 31.03
52.62 52.19 53.75 54.54 55.09 54.51 54.07 54.07 54.25 54.14 53.94 53.73 53.04 53.32 54.18 54.96 53.29 50.35 52.99 55.74 56.11 49.94 24.20 42.35 44.74 49.85 47.66 44.37 43.44 47.79 49.29 45.85 40.70 40.16 39.78 36.44 37.46 38.82 38.82 37.92 39.11 37.92 40.16 37.50 36.67 33.77 32.91
52.56 52.60 53.62 54.09 54.34 54.18 53.88 53.82 53.66 53.58 53.42 53.45 52.98 53.24 53.65 54.76 51.37 51.04 55.47 53.22 52.64 35.69 27.15 40.45 44.41 43.68 43.44 44.39 44.73 46.66 46.21 47.66 45.08 41.82 42.17 39.55 41.42 40.11 38.77 40.86 40.71 42.15 38.45 36.81 35.64 33.41 27.76
52.69 53.07 53.54 53.81 54.24 53.94 53.88 53.56 53.25 53.15 53.09 53.10 52.61 54.67 55.82 55.89 48.57 54.02 53.66 50.17 36.86 28.57 42.73 38.79 40.15 42.71 40.98 40.44 42.73 43.00 41.36 39.63 36.98 32.79 33.86 39.54 39.80 42.27 42.21 39.41 41.74 39.68 33.13 25.01 24.66 23.77 24.89
53.65 53.52 53.48 53.68 54.12 53.88 53.70 53.31 52.98 52.81 52.71 52.88 52.57 54.66 55.34 55.65 54.67 54.43 50.19 42.33 30.71 37.81 38.01 42.24 41.04 41.51 38.71 39.93 40.61 41.27 39.54 37.02 40.18 38.02 34.15 33.11 30.14 39.65 43.24 38.66 35.80 36.29 34.41 25.49 20.90 20.03 24.71
53.50 54.06 53.50 53.44 54.02 53.71 53.33 53.04 53.02 52.84 52.33 52.28 54.32 53.50 50.47 53.27 55.24 52.27 45.42 31.56 31.88 36.95 40.06 40.18 41.03 38.05 38.02 41.02 39.88 39.27 37.30 37.25 38.92 39.45 33.96 32.37 33.59 41.50 42.09 41.73 39.80 36.86 32.25 36.22 28.53 21.36 22.19
53.44 53.59 53.65 53.34 53.56 53.21 52.86 52.85 52.90 52.72 52.53 52.64 54.46 47.55 49.40 53.95 53.87 47.31 38.95 35.44 37.45 41.75 42.25 42.02 36.58 38.38 34.85 38.63 37.65 37.17 36.66 40.05 39.31 41.96 40.59 37.66 33.06 38.55 41.24 41.54 41.70 38.84 39.66 30.38 29.00 19.28 20.92
52.68 52.87 53.04 53.09 53.12 52.74 52.71 52.65 52.61 52.52 52.27 52.68 52.59 43.81 49.30 54.22 50.06 42.62 32.76 32.84 39.86 43.98 44.39 41.93 39.26 38.43 38.85 37.43 38.05 36.63 37.28 40.16 41.37 41.23 41.66 37.80 35.87 34.00 37.51 36.55 34.86 36.19 33.21 34.03 33.98 29.65 21.59
52.03 52.24 52.23 52.43 52.93 52.67 52.49 52.56 52.30 52.16 51.96 52.84 45.65 39.95 50.19 50.96 42.23 36.98 35.94 39.86 43.12 43.13 45.61 43.84 42.75 41.20 39.51 38.83 37.72 37.77 37.71 39.81 42.97 41.88 37.87 38.67 33.26 28.20 32.92 38.13 40.07 37.56 35.24 34.02 25.37 25.40 26.56
51.80 51.97 52.20 52.55 52.68 52.43 52.17 51.96 51.56 51.70 52.04 50.34 45.82 44.88 49.84 49.07 34.40 30.56 40.02 42.11 43.09 42.54 42.55 41.84 40.82 42.20 42.11 38.22 34.67 38.62 39.83 42.92 43.64 41.54 38.62 38.46 31.32 25.25 28.96 34.01 36.86 35.66 36.52 35.65 31.54 29.12 27.51
51.55 51.74 51.84 52.31 52.46 52.57 52.18 49.82 50.22 51.71 51.90 48.60 43.94 39.04 43.93 44.53 41.47 39.88 38.59 38.73 40.24 44.03 42.65 43.21 41.88 42.62 40.50 38.32 39.85 36.94 38.42 42.36 43.75 42.52 44.11 41.91 33.92 29.85 25.03 29.44 32.50 32.16 35.32 35.67 33.81 29.32 27.99
51.53 51.66 51.36 51.70 51.87 52.10 49.80 49.22 50.91 51.53 51.47 49.31 43.21 39.90 42.15 35.13 38.57 40.46 40.81 40.46 39.67 38.98 42.66 43.26 41.23 40.95 38.66 33.78 35.09 35.24 39.22 40.47 41.83 43.40 41.21 38.74 32.13 32.81 33.91 35.24 34.97 35.42 35.11 35.25 32.66 32.94 31.09
51.42 51.56 50.86 50.48 51.09 51.26 49.02 48.84 50.72 51.25 51.36 46.88 43.91 42.72 42.40 40.72 42.07 39.29 37.32 38.26 40.43 40.31 41.07 39.77 39.77 40.48 40.32 36.59 37.33 34.73 38.61 37.19 37.81 39.69 36.90 37.75 29.50 31.06 30.24 33.87 34.03 32.11 34.66 34.90 34.93 34.62 33.99
51.40 51.46 50.27 50.18 51.61 51.00 49.57 48.50 49.19 51.06 51.30 47.24 45.46 44.41 44.11 36.68 35.28 34.50 34.83 39.68 40.61 42.24 41.95 42.82 42.31 38.95 34.16 40.46 42.40 42.27 42.74 41.97 40.11 37.25 35.17 34.76 29.01 28.51 23.98 30.95 29.83 25.11 29.92 32.44 33.25 34.46 33.65
51.31 51.34 51.28 51.39 52.15 51.80 48.50 48.95 50.46 50.71 51.01 48.99 46.93 42.98 38.33 32.63 30.06 36.07 40.58 41.02 40.81 40.49 40.38 41.90 41.56 36.74 41.19 44.92 42.24 39.96 37.43 35.20 36.49 38.19 39.93 31.40 28.15 27.71 24.35 30.66 23.21 33.01 36.40 36.71 34.10 34.91 35.94
50.72 51.03 51.59 51.88 51.95 52.12 48.80 50.38 50.48 50.35 51.67 50.62 47.65 44.49 38.50 32.20 34.63 37.59 40.57 40.52 40.94 40.91 39.94 41.17 43.85 43.21 43.39 39.05 31.99 27.94 28.29 27.67 28.90 37.50 35.66 35.23 31.79 28.47 29.00 28.19 29.53 34.61 36.01 32.49 31.68 31.46 35.46
50.61 50.76 51.13 51.35 51.28 51.21 51.61 50.94 50.39 50.31 51.28 51.90 49.13 44.82 41.82 35.40 36.28 41.88 40.38 40.05 34.09 32.42 34.04 38.77 44.03 43.86 40.65 30.00 28.31 21.39 21.20 27.14 29.12 31.60 35.69 34.66 29.17 26.32 28.65 25.68 23.83 31.22 34.37 36.89 37.75 28.31 36.86
50.58 50.69 50.87 50.77 50.61 50.58 51.14 51.58 50.52 50.37 51.08 52.01 50.04 47.62 44.66 36.01 40.79 42.76 37.58 38.05 39.41 35.39 35.46 34.06 38.84 36.93 38.77 29.17 28.19 22.40 25.13 31.06 26.54 22.29 21.88 26.67 29.29 31.00 30.80 27.51 28.27 34.12 36.27 38.82 28.95 30.29 38.61
50.32 50.23 50.14 50.29 50.21 50.11 50.53 51.38 50.71 50.31 50.78 51.79 49.78 50.48 47.18 38.60 41.82 45.59 45.28 42.06 40.92 38.31 33.85 38.22 37.39 34.55 35.26 32.29 28.45 29.20 19.68 27.76 27.52 30.78 27.52 26.76 23.40 21.55 26.36 25.75 22.34 36.29 37.66 32.97 37.11 39.86 40.88
49.83 49.96 49.89 49.68 49.66 49.56 50.20 50.50 50.46 50.17 50.37 50.68 49.13 50.32 49.36 44.38 42.97 46.97 48.10 47.72 45.92 44.90 41.10 37.04 38.37 36.91 35.79 32.74 32.24 28.67 26.54 27.81 29.10 29.49 32.25 28.90 31.91 30.71 33.20 29.69 35.92 39.61 40.91 41.88 41.93 40.55 39.36

GFSGBSN_sfc_wetblb_012.txt.gz
Wetbulb
56.86 56.72 56.40 56.96 57.45 57.41 57.02 56.83 56.37 56.48 56.01 55.67 55.65 56.02 55.84 55.96 55.85 55.24 54.78 54.49 54.27 54.45 55.30 56.06 56.81 57.26 58.46 54.76 53.39 58.79 60.44 61.87 59.59 57.29 55.94 55.17 52.87 51.97 48.54 49.66 50.43 48.86 49.43 50.02 49.90 49.37 49.45
56.43 56.35 56.34 57.24 57.28 57.26 56.47 55.65 56.06 55.71 55.49 55.42 55.43 55.52 55.97 55.47 55.29 55.02 54.52 54.33 53.75 53.94 55.87 56.27 56.93 56.76 58.07 50.22 58.00 58.85 57.89 57.70 58.43 58.08 56.69 55.92 53.81 54.43 51.87 50.62 50.05 50.91 50.67 50.29 50.54 50.03 50.38
56.16 56.05 56.92 57.42 57.14 56.90 55.96 55.58 55.67 55.33 55.41 55.33 55.22 55.32 55.61 55.73 54.94 54.74 54.57 54.20 53.72 55.49 56.01 56.32 56.76 58.78 55.60 53.16 58.78 58.86 57.03 57.17 57.10 57.79 55.94 56.51 55.93 53.84 54.13 51.62 52.24 51.28 48.67 50.25 49.82 50.19 49.22
55.78 55.73 56.99 57.28 57.01 56.75 55.64 56.05 55.67 55.20 55.17 54.99 55.11 55.04 54.98 55.26 55.60 55.62 55.32 55.26 55.30 55.56 55.95 56.21 55.97 59.22 52.92 58.28 60.21 57.31 57.06 56.13 57.53 58.36 57.87 57.31 57.22 54.50 53.03 53.09 50.53 48.76 49.06 45.73 49.07 50.12 50.60
55.97 55.80 56.80 57.32 56.85 56.61 55.98 56.05 55.54 55.02 54.68 54.80 54.70 54.80 54.59 54.35 54.45 54.65 54.80 54.67 54.94 55.39 55.90 56.01 59.67 58.22 51.20 59.10 55.39 57.16 56.47 54.70 56.31 57.20 57.03 55.34 55.40 52.63 51.63 49.67 47.03 47.36 43.71 43.88 46.20 49.86 50.06
55.01 55.54 56.90 57.32 57.00 56.80 56.75 56.13 55.28 54.78 54.72 54.76 54.93 54.67 54.46 54.33 54.23 54.00 53.90 54.43 55.13 55.48 56.91 57.92 56.72 53.50 53.41 51.37 54.57 55.06 56.20 56.07 55.13 55.38 54.61 53.84 53.91 50.63 50.28 47.15 42.34 42.59 42.91 44.72 44.15 47.79 48.75
54.13 54.55 55.96 57.01 56.92 56.88 56.66 56.05 55.34 54.67 54.67 54.88 55.05 54.61 54.30 54.31 54.27 53.66 55.22 59.69 55.83 54.85 55.32 51.41 51.41 51.04 51.76 54.82 55.71 54.73 54.68 54.90 54.51 53.51 49.53 51.11 49.57 46.10 46.69 47.72 46.78 45.55 44.14 43.42 45.62 47.88 47.72
53.94 54.05 55.47 56.53 56.97 56.52 56.39 55.77 55.24 54.66 54.55 54.57 54.98 54.93 54.61 54.15 54.23 54.03 59.64 58.03 56.65 58.00 50.08 52.64 51.91 52.31 53.05 54.10 51.69 54.58 57.06 52.06 51.41 48.14 49.86 48.74 45.34 47.04 48.09 47.43 45.79 45.35 43.72 43.60 45.94 46.98 47.36
53.47 53.02 54.85 55.70 56.14 55.86 55.78 55.59 54.92 54.66 54.51 54.18 54.21 54.74 54.49 53.90 53.83 58.19 62.19 59.86 62.97 60.48 50.89 50.93 52.32 51.83 52.10 54.90 51.44 52.45 54.62 51.96 49.90 47.52 47.99 46.12 45.56 47.06 47.11 47.23 45.85 45.54 43.82 43.94 43.62 46.86 47.97
53.27 52.57 54.21 55.04 55.63 55.26 54.96 54.98 54.82 54.64 54.29 54.16 53.88 54.16 53.88 53.18 55.88 60.85 58.80 60.75 63.45 59.75 47.54 46.18 49.08 51.70 52.58 52.43 49.87 54.76 54.74 51.68 49.40 46.57 47.41 46.42 47.80 46.99 46.90 45.42 46.79 43.04 46.23 45.94 44.64 44.29 42.22
53.14 52.96 53.90 54.45 54.86 54.23 54.10 54.10 54.15 54.23 54.13 54.10 53.57 54.35 53.59 54.51 61.43 58.61 59.56 63.09 64.04 60.04 37.51 47.30 49.34 54.83 54.12 50.45 50.34 52.18 54.76 53.21 47.76 46.92 48.05 43.77 46.28 46.42 45.54 45.00 47.41 45.01 47.38 45.74 45.25 44.77 44.21
53.24 53.47 53.78 54.02 54.35 54.07 53.86 53.70 53.56 53.54 53.58 53.62 53.55 54.63 54.12 58.93 63.41 60.81 63.26 62.55 62.07 48.31 35.13 45.14 49.25 48.86 49.68 50.90 49.98 52.07 52.18 54.00 51.67 49.06 49.36 47.13 49.56 49.09 47.77 47.63 47.39 48.41 45.90 45.68 46.17 45.99 40.00
53.22 53.59 53.67 53.86 54.03 53.82 53.76 53.56 53.09 53.08 53.20 53.41 54.31 54.84 59.54 61.47 58.91 62.98 63.24 60.31 46.87 41.17 46.55 43.90 45.38 48.23 48.09 46.88 48.00 49.00 48.50 47.61 46.06 43.07 43.16 46.05 46.46 49.12 49.60 46.52 48.92 48.47 44.62 40.40 38.12 38.96 38.08
53.61 53.68 53.51 53.84 54.01 53.68 53.58 53.37 52.93 52.76 52.91 53.59 53.67 55.00 56.35 60.98 63.73 62.76 61.51 54.06 39.66 42.96 43.80 47.07 46.99 47.33 44.86 46.86 46.82 47.46 46.45 45.56 48.28 46.48 44.70 42.20 40.07 46.52 49.00 46.47 44.64 44.97 44.56 39.48 30.63 34.91 37.83
53.49 53.70 53.37 53.54 53.75 53.62 53.11 53.05 52.81 52.64 52.56 52.99 54.00 60.90 61.66 61.57 62.72 61.76 56.66 47.06 43.39 44.82 46.77 45.94 46.70 44.18 44.24 46.17 46.56 46.43 45.73 44.80 46.36 47.70 43.01 42.03 40.76 47.49 47.43 48.44 47.27 44.36 42.26 44.49 37.95 33.24 36.68
53.34 53.33 53.06 52.94 53.09 52.98 52.66 52.79 52.38 52.42 52.40 53.18 59.85 59.57 59.52 60.99 61.26 59.98 53.79 42.29 44.95 46.95 47.93 47.62 43.07 44.89 42.67 44.56 44.58 45.05 44.44 46.17 45.20 47.70 48.84 44.54 39.97 44.72 46.36 48.41 48.60 46.61 46.65 40.82 42.21 32.56 28.99
52.92 52.61 52.78 52.52 52.74 52.61 52.59 52.20 51.01 52.11 52.32 53.05 59.86 54.58 58.76 61.00 59.56 55.94 48.45 45.40 46.50 48.67 49.41 47.31 45.56 44.50 45.26 44.18 45.34 43.96 43.38 45.78 47.51 46.98 48.79 45.67 43.25 41.91 44.85 44.26 43.58 45.18 43.84 42.29 42.21 40.29 33.45
52.12 52.02 52.01 52.32 52.64 52.44 52.03 50.63 51.13 51.96 52.26 56.35 57.61 51.46 58.84 60.30 52.34 51.04 47.65 47.70 46.08 48.49 50.17 49.03 49.44 47.57 46.01 45.62 44.43 44.22 43.40 45.69 48.40 48.40 44.25 46.12 43.83 39.04 40.02 45.00 46.78 45.75 43.07 42.15 37.71 32.15 37.68
51.87 51.84 52.04 52.17 52.25 52.12 49.89 50.29 50.61 51.60 52.31 59.45 56.25 55.13 59.03 58.26 48.59 48.25 47.83 46.99 48.09 47.99 47.41 47.87 46.99 48.29 48.41 45.41 42.72 45.17 45.43 47.83 48.78 48.23 45.93 46.73 41.95 36.23 37.83 42.37 45.20 43.16 43.69 43.09 41.21 39.65 35.33
51.76 51.82 51.86 51.95 51.41 50.21 49.91 50.10 50.54 51.60 52.10 58.90 55.99 51.78 54.49 55.05 52.03 49.79 47.54 46.47 45.73 48.87 47.68 48.88 47.37 49.05 47.60 45.60 47.09 44.67 45.08 47.14 48.08 48.16 43.78 47.04 43.15 38.92 35.09 37.55 41.11 38.45 40.37 42.22 41.31 36.08 36.31
51.62 51.88 51.34 49.86 49.91 49.38 49.85 50.10 50.59 51.48 51.52 58.43 55.37 51.45 51.08 49.09 49.10 50.05 49.42 47.92 45.94 45.11 48.51 49.19 47.11 47.52 46.62 43.22 43.95 43.73 45.83 46.10 46.67 45.36 47.84 47.27 38.85 41.20 41.44 41.99 41.84 40.61 39.97 40.66 39.27 40.08 35.78
51.63 51.67 50.63 49.82 49.83 49.40 49.56 50.10 50.82 51.15 51.34 56.54 53.80 52.07 51.69 49.23 49.30 49.48 45.53 47.33 46.19 45.73 47.30 45.91 46.34 46.92 47.13 43.63 43.83 42.60 44.27 44.18 42.94 46.77 45.83 45.68 39.54 38.86 36.49 39.94 40.54 38.22 40.63 41.14 40.89 41.25 40.89
51.53 51.32 49.67 49.84 50.77 49.58 49.78 49.89 50.90 51.07 52.66 57.23 54.32 53.25 55.33 42.83 46.97 48.94 47.43 47.66 47.22 48.98 47.86 49.41 49.23 47.43 44.86 46.74 49.20 49.58 49.51 48.75 47.36 45.07 43.04 42.86 41.16 37.38 34.35 37.33 37.37 34.34 38.78 40.11 40.96 42.15 41.67
51.28 51.12 49.63 50.80 52.12 49.90 49.87 51.13 50.34 50.77 53.03 58.50 55.38 54.84 53.52 46.25 48.16 47.93 47.51 48.42 47.87 47.54 47.31 48.07 49.47 47.98 47.98 51.26 50.41 49.05 46.91 45.96 46.47 45.31 46.42 39.30 39.77 37.03 35.01 35.18 29.96 39.44 44.27 43.65 41.42 42.64 44.04
50.65 51.16 51.60 52.02 52.23 51.64 51.12 50.71 50.11 50.48 51.88 57.04 54.65 54.56 51.20 38.04 48.38 46.25 48.30 47.88 48.39 48.80 47.76 48.09 48.46 48.68 52.47 49.67 45.25 39.93 39.37 37.55 38.98 42.01 42.62 44.40 40.73 34.41 32.22 31.90 36.54 39.04 41.06 40.64 38.93 39.45 43.65
50.35 50.77 51.43 51.80 51.77 51.45 51.09 50.54 50.13 50.33 51.71 57.18 54.59 53.86 53.09 41.31 47.48 48.70 48.12 49.17 47.39 47.35 47.39 46.67 48.91 50.27 50.19 46.89 42.29 35.28 36.17 35.94 36.57 38.01 40.18 40.32 40.78 40.14 34.18 30.10 28.67 39.17 42.42 44.08 43.86 36.07 44.18
49.91 50.53 50.83 51.19 51.42 51.49 51.05 50.65 50.06 50.41 51.31 58.62 56.16 55.37 55.02 50.92 49.07 49.56 48.98 48.55 49.43 48.74 47.70 47.87 47.78 46.33 49.09 42.57 37.50 38.45 38.11 38.61 35.67 34.42 33.66 34.43 34.55 33.85 33.53 32.00 35.97 42.77 43.27 44.71 33.72 37.40 45.27
49.60 49.75 50.01 50.35 50.65 50.93 51.13 50.95 50.40 50.18 50.55 57.35 56.12 56.33 55.75 49.66 50.07 50.87 50.46 48.84 48.66 50.49 47.84 47.70 47.44 46.56 45.01 36.41 37.13 38.77 36.05 39.92 37.61 39.24 37.15 37.10 36.31 32.93 33.92 30.40 28.94 43.63 43.25 37.85 43.21 45.36 42.82
49.43 49.61 49.63 49.95 50.11 50.25 50.61 51.01 50.62 50.18 50.38 53.51 56.42 55.68 55.29 54.58 51.90 53.77 54.13 53.54 53.40 53.07 50.90 49.09 48.18 47.54 49.18 43.56 39.44 37.60 34.05 34.05 39.03 35.86 41.65 36.50 40.27 38.35 37.81 38.98 45.74 47.24 46.37 47.28 46.38 44.63 41.27

GFSGBSN_sfc_wetblb_015.txt.gz
Wetbulb
56.51 56.87 56.95 56.79 57.41 57.84 57.78 57.70 57.39 56.10 56.24 56.68 56.44 56.37 56.24 56.26 56.17 55.94 55.43 55.10 55.23 54.97 54.88 55.44 56.90 57.60 60.40 57.11 53.85 59.94 61.72 63.15 62.47 59.18 57.17 55.38 53.29 51.66 48.39 49.28 49.48 48.35 48.99 49.46 49.77 49.52 49.93
56.58 56.52 56.46 56.78 57.61 57.71 57.50 57.10 56.19 56.12 56.27 55.99 55.89 55.77 56.14 56.59 55.86 55.79 55.20 54.86 54.84 54.06 54.49 56.20 57.12 57.03 60.36 51.79 58.94 59.70 59.39 59.09 59.40 58.43 55.91 55.57 53.56 53.84 50.62 50.06 50.48 51.44 51.30 51.16 51.32 51.06 50.85
56.34 56.21 56.61 57.30 57.55 57.37 57.15 56.19 56.20 56.00 55.82 55.92 56.01 55.85 55.81 56.01 55.34 55.32 55.50 54.66 54.06 54.06 55.43 56.61 57.17 60.21 59.07 54.24 59.47 59.90 58.76 58.24 58.92 59.00 55.65 57.09 56.31 53.44 53.78 51.22 53.38 52.32 49.44 51.27 51.48 51.90 50.79
55.86 55.89 55.96 57.36 57.38 57.16 56.64 55.97 56.18 55.72 55.70 55.66 55.60 55.57 55.32 55.73 55.91 55.00 54.49 54.17 54.60 55.71 56.20 56.43 56.88 61.27 54.58 58.94 60.93 57.91 58.40 57.24 58.99 59.95 58.78 58.54 57.90 55.99 54.52 55.21 52.03 50.04 50.58 47.28 50.79 51.54 52.08
55.71 55.62 55.86 57.36 57.24 56.88 56.65 56.33 55.57 55.30 55.25 55.13 55.45 55.72 55.33 55.02 55.02 55.24 55.47 55.57 55.47 55.86 56.09 56.91 60.51 61.09 51.84 58.50 56.14 57.48 58.00 55.46 57.48 59.01 58.45 56.99 57.50 54.14 53.99 50.40 48.24 49.08 45.79 45.75 47.73 51.60 51.00
55.55 54.86 55.99 57.22 57.18 57.10 56.98 56.21 55.37 54.94 54.69 54.51 54.82 55.13 55.03 54.88 54.72 54.66 54.61 54.84 55.50 55.72 57.20 60.43 60.39 55.09 53.80 52.38 55.14 55.96 58.04 57.92 56.64 57.02 55.45 54.94 54.20 51.54 50.81 49.09 43.52 44.79 44.10 45.80 45.36 49.42 49.15
55.05 54.13 55.25 56.55 57.17 57.11 56.80 56.02 55.32 54.90 54.89 54.51 54.66 55.28 55.03 54.83 54.70 54.31 54.94 60.07 57.21 56.79 57.46 53.53 52.73 52.13 52.68 55.27 57.05 55.42 57.04 56.64 56.56 55.25 51.25 52.89 49.96 48.32 48.72 49.08 48.17 46.79 45.40 45.05 47.37 49.44 48.06
54.77 53.71 54.76 56.08 56.76 56.42 56.40 56.00 55.20 54.78 54.95 54.57 54.71 55.26 54.77 54.96 54.92 54.63 60.44 59.37 59.15 59.18 50.99 54.38 54.27 54.54 55.30 55.91 52.02 54.85 58.08 53.77 53.09 49.71 51.21 49.35 47.96 49.24 49.73 48.88 47.59 47.09 45.71 45.71 47.66 48.67 48.27
54.70 53.68 54.51 55.57 56.28 56.03 55.98 55.64 55.06 54.76 54.88 54.78 54.86 54.96 55.32 54.45 54.23 58.47 62.93 61.49 64.30 62.62 51.69 51.68 53.76 53.17 53.49 55.68 52.38 52.86 55.91 53.28 50.68 48.39 48.16 47.92 48.31 49.17 48.85 47.99 47.18 47.60 45.95 46.32 45.66 48.58 49.73
54.25 53.02 54.22 55.10 55.72 55.47 55.39 55.27 55.00 54.84 54.76 54.72 54.62 55.29 54.55 53.58 55.99 63.71 60.88 63.36 66.09 63.80 48.68 46.96 50.13 52.53 53.71 54.43 50.99 56.22 56.54 53.59 50.43 47.33 48.56 48.27 50.11 48.37 47.84 47.06 48.45 45.44 48.19 47.41 46.67 45.81 43.40
53.71 53.00 54.03 54.66 54.98 54.65 54.21 54.23 54.19 54.27 54.49 54.62 54.31 55.25 53.62 54.29 62.43 59.69 61.77 66.21 67.35 64.08 39.06 48.54 50.29 56.86 54.36 52.05 52.58 53.20 57.12 54.10 48.80 48.74 49.52 46.68 47.48 47.73 47.02 47.18 48.96 46.82 49.64 47.96 47.69 46.57 46.24
53.25 53.44 54.07 54.44 54.66 54.31 54.04 53.84 53.60 53.78 54.10 54.23 54.45 55.22 53.94 59.29 65.49 63.19 65.36 66.12 65.23 49.87 37.49 46.40 50.52 50.67 50.87 52.05 51.74 53.72 53.28 55.34 54.16 49.49 50.60 48.91 51.74 50.76 49.50 49.70 49.34 50.65 48.92 48.20 48.64 47.11 40.98
53.51 53.64 53.89 54.29 54.59 54.31 53.94 53.64 53.18 53.34 53.78 54.86 54.96 55.31 57.01 64.53 60.28 66.06 66.69 62.57 46.85 42.58 48.55 45.38 47.15 49.83 49.77 48.91 49.82 51.05 50.06 49.69 48.70 45.27 45.29 47.98 48.17 50.90 51.13 48.80 51.01 50.07 47.24 41.96 39.83 40.14 39.73
53.86 53.95 54.05 54.35 54.49 53.99 53.70 53.42 52.92 53.10 53.64 54.82 54.71 55.79 59.81 64.71 66.61 66.28 63.34 53.46 42.59 45.65 45.99 49.40 49.09 49.43 46.97 49.18 48.71 49.12 48.83 47.53 50.17 48.98 46.97 44.26 42.13 47.93 50.24 48.46 46.43 46.73 46.79 41.23 32.90 36.27 39.53
53.68 53.78 53.90 54.11 54.27 53.76 53.42 52.96 52.69 52.76 53.20 54.72 54.70 64.74 64.06 65.04 66.57 65.33 56.95 47.45 46.23 46.52 48.65 47.76 48.48 46.23 45.91 47.91 48.27 48.60 48.19 47.07 48.00 49.84 45.90 44.07 43.26 49.26 49.53 50.75 49.71 46.54 43.88 46.82 40.87 38.75 38.24
53.61 53.41 53.53 53.60 53.65 53.30 52.92 52.16 51.27 52.74 53.32 54.97 60.79 59.86 60.64 64.88 66.21 62.74 55.09 45.88 47.71 49.83 49.67 49.76 45.04 47.27 44.61 46.39 46.59 47.25 46.69 48.32 47.18 49.54 50.97 46.65 42.47 46.67 48.36 50.25 50.29 48.38 48.71 42.67 43.88 33.12 30.66
53.16 52.93 53.22 53.22 53.17 52.86 52.28 50.83 51.21 52.38 52.99 54.90 60.89 54.90 61.91 66.08 63.58 57.19 50.07 48.40 48.59 51.14 51.62 49.25 47.09 46.33 47.56 46.06 47.41 46.25 45.93 47.87 49.34 48.75 50.08 47.67 44.93 44.56 46.81 45.87 45.13 46.75 45.98 44.36 43.63 41.27 34.60
52.42 52.42 52.75 52.94 52.99 52.47 50.71 50.83 50.91 52.24 52.65 54.28 59.69 52.29 62.77 64.33 53.20 55.26 50.50 49.91 48.44 50.76 52.53 50.96 51.32 49.62 48.24 48.06 46.58 46.40 45.91 48.26 50.71 50.44 46.40 47.88 45.55 40.95 42.35 47.33 49.13 47.65 45.27 44.27 38.94 35.66 39.22
52.18 52.11 52.43 52.85 52.64 50.95 50.58 50.91 50.37 51.80 52.22 63.22 56.09 56.35 62.48 61.95 50.65 51.99 51.24 49.67 50.97 50.36 50.34 50.30 49.07 50.63 51.24 48.56 45.02 47.61 47.82 50.25 50.91 50.18 48.04 48.42 44.47 38.49 40.52 44.91 47.32 44.45 45.39 44.44 42.73 41.09 36.21
51.94 52.14 52.12 51.91 50.22 50.29 50.72 50.83 50.96 51.66 52.61 60.74 57.43 53.10 56.13 57.79 56.67 52.19 49.86 49.17 47.96 51.59 50.39 51.49 50.40 51.72 50.07 47.86 49.77 47.00 47.31 49.19 50.52 50.48 45.06 48.09 44.96 40.39 36.98 39.87 43.04 40.68 42.51 43.69 42.84 37.32 37.88
51.98 52.06 51.51 50.23 50.06 50.06 50.74 50.78 51.20 51.68 51.92 60.69 58.85 54.67 55.22 50.69 52.15 52.90 52.35 50.63 48.38 46.78 51.04 52.04 49.43 49.65 48.76 45.18 46.99 46.11 48.64 48.39 48.97 45.32 48.90 48.39 40.45 43.15 43.46 43.37 43.13 42.08 41.73 42.41 40.85 41.52 37.52
51.97 51.73 50.36 50.10 50.22 50.09 50.39 50.89 51.10 51.31 51.69 60.94 55.22 54.58 55.97 54.63 53.68 52.16 47.75 49.40 48.43 48.26 49.56 48.32 48.66 49.92 49.78 46.59 46.20 45.35 46.87 45.92 45.11 48.23 47.41 47.38 41.16 41.33 38.90 42.83 42.33 40.14 42.07 42.68 42.63 42.57 42.39
51.86 51.04 50.02 50.39 50.15 50.24 50.42 51.23 50.81 51.19 52.56 60.48 59.55 59.37 57.37 47.37 52.43 50.87 50.24 50.01 49.54 51.06 50.07 51.43 51.20 49.48 47.93 48.71 51.44 51.85 51.70 50.39 48.96 47.11 45.05 44.54 43.13 38.96 35.66 40.73 39.18 35.89 40.78 41.54 42.55 43.90 43.27
51.70 50.29 49.85 51.71 51.11 50.53 51.62 51.00 50.58 50.99 52.58 62.20 60.03 59.34 55.37 49.14 51.33 50.75 50.26 50.93 50.20 50.46 49.32 51.31 51.80 49.83 51.12 54.27 53.43 51.83 50.56 49.04 49.13 48.34 49.03 43.54 41.59 40.43 36.55 35.89 31.04 42.29 46.65 45.57 43.32 44.11 45.49
51.22 50.87 51.69 52.62 52.52 52.20 51.66 50.70 50.42 50.68 52.14 60.78 59.57 58.77 54.36 42.13 52.03 50.48 50.96 51.05 51.13 51.69 50.72 50.51 50.74 53.05 55.34 51.98 47.11 40.56 40.02 37.43 41.51 45.43 45.70 47.51 43.51 36.72 34.26 34.20 37.91 41.16 42.87 42.45 40.89 40.72 46.23
50.82 51.41 51.98 52.11 52.04 51.84 51.50 50.79 50.30 50.67 52.05 60.64 58.37 59.33 57.77 45.23 50.23 52.67 51.43 52.03 49.87 49.63 49.50 49.11 52.32 54.59 53.93 50.16 44.06 36.38 36.91 39.17 39.07 40.55 44.14 44.41 44.84 41.31 36.29 31.30 29.78 40.53 45.13 46.58 46.23 36.96 46.04
50.54 50.97 51.53 51.84 51.72 51.82 51.57 51.01 50.49 50.63 51.44 60.18 59.47 59.97 58.45 54.04 53.03 53.70 51.55 51.24 53.61 51.90 49.88 50.52 50.29 49.59 53.05 44.99 38.69 39.89 39.85 42.21 37.58 35.87 33.44 36.25 36.84 36.63 35.10 33.84 37.09 44.43 45.53 46.86 34.75 38.49 46.79
49.91 50.25 50.58 50.90 51.35 51.64 51.67 51.23 50.43 50.42 51.04 57.90 59.05 59.96 58.74 53.61 52.85 53.72 53.73 52.42 52.71 52.84 49.39 51.40 49.58 49.91 49.40 39.07 39.45 42.11 37.93 42.13 40.41 42.13 39.10 37.09 36.16 33.43 36.25 32.58 29.98 46.30 44.96 39.07 44.52 48.06 46.74
49.52 49.63 50.07 50.27 50.65 50.83 51.81 51.46 50.80 50.47 50.64 53.01 58.99 59.49 60.02 57.17 54.64 57.28 56.40 56.73 56.00 55.64 54.21 52.92 50.52 50.45 50.89 47.11 43.48 44.23 38.71 36.90 40.13 37.49 45.14 38.38 42.30 40.32 40.45 40.12 47.33 47.93 46.42 48.38 48.97 46.97 44.68